This is the latest recevied weather packets stored in our database for station/object LU4HH-15. If no packets are shown the sender has not sent any weather packets the latest 10 day(s).
| Time | Temp. | Humidity | Pressure | Rain* | Wind** | Luminosity | Snow |
|---|---|---|---|---|---|---|---|
| 1788463236 | 18.89° C | 41% | 1024.4 hPa | - | - | - | - |
| 1788462356 | 18.89° C | 41% | 1024.4 hPa | - | - | - | - |
| 1788461435 | 19.44° C | 41% | 1024.3 hPa | - | - | - | - |
| 1788460537 | 19.44° C | 40% | 1024.5 hPa | - | - | - | - |
| 1788459632 | 19.44° C | 39% | 1024.5 hPa | - | - | - | - |
| 1788458731 | 20° C | 39% | 1024.7 hPa | - | - | - | - |
| 1788457857 | 19.44° C | 40% | 1024.8 hPa | - | - | - | - |
| 1788456930 | 19.44° C | 40% | 1025 hPa | - | - | - | - |
| 1788456028 | 19.44° C | 41% | 1025.2 hPa | - | - | - | - |
| 1788455127 | 18.89° C | 40% | 1025.4 hPa | - | - | - | - |
| 1788454229 | 18.89° C | 40% | 1025.6 hPa | - | - | - | - |
| 1788453354 | 18.89° C | 40% | 1025.8 hPa | - | - | - | - |
| 1788452452 | 18.33° C | 40% | 1026 hPa | - | - | - | - |
| 1788451551 | 18.33° C | 40% | 1026 hPa | - | - | - | - |
| 1788450651 | 17.78° C | 41% | 1026.3 hPa | - | - | - | - |
| 1788449750 | 17.78° C | 40% | 1026.3 hPa | - | - | - | - |
| 1788448848 | 17.22° C | 40% | 1026.5 hPa | - | - | - | - |
| 1788447947 | 17.22° C | 40% | 1026.6 hPa | - | - | - | - |
| 1788447046 | 17.22° C | 41% | 1026.6 hPa | - | - | - | - |
| 1788446145 | 17.22° C | 41% | 1026.6 hPa | - | - | - | - |
| 1788445243 | 17.22° C | 41% | 1026.5 hPa | - | - | - | - |
| 1788444342 | 17.22° C | 41% | 1026.6 hPa | - | - | - | - |
| 1788443441 | 17.22° C | 41% | 1026.4 hPa | - | - | - | - |
| 1788442540 | 17.22° C | 42% | 1026.4 hPa | - | - | - | - |
| 1788441638 | 17.22° C | 43% | 1026.4 hPa | - | - | - | - |
* Rain since midnight (hover to see other rain measurements)
** Current wind speed in m/s (hover to see current wind gust speed)